Time,TemperatureF,DewpointF,PressureIn,WindDirection,WindDirectionDegrees,WindSpeedMPH,WindSpeedGustMPH,Humidity,HourlyPrecipIn,Conditions,Clouds,dailyrainin,SoftwareType,DateUTC
2013-01-22 00:03:00,-7.1,-22.4,30.48,South,180,5.0,8.0,46,0.00,,,0.00,meteohub,2013-01-22 06:03:00,
2013-01-22 00:09:00,-7.1,-22.7,30.49,South,180,5.0,8.0,45,0.00,,,0.00,meteohub,2013-01-22 06:09:00,
2013-01-22 00:14:00,-7.2,-22.9,30.49,South,180,4.0,5.0,45,0.00,,,0.00,meteohub,2013-01-22 06:14:00,
2013-01-22 00:19:00,-7.2,-22.9,30.49,South,180,4.0,8.0,45,0.00,,,0.00,meteohub,2013-01-22 06:19:00,
2013-01-22 00:24:00,-7.4,-23.1,30.49,SW,225,7.0,8.0,45,0.00,,,0.00,meteohub,2013-01-22 06:24:00,
2013-01-22 00:29:00,-7.4,-23.1,30.49,SW,225,4.0,8.0,45,0.00,,,0.00,meteohub,2013-01-22 06:29:00,
2013-01-22 00:34:00,-7.6,-23.3,30.50,SW,225,8.0,8.0,45,0.00,,,0.00,meteohub,2013-01-22 06:34:00,
2013-01-22 00:39:00,-7.6,-23.8,30.50,SW,225,9.0,11.0,44,0.00,,,0.00,meteohub,2013-01-22 06:39:00,
2013-01-22 00:44:00,-7.8,-25.6,30.50,SW,225,5.0,11.0,40,0.00,,,0.00,meteohub,2013-01-22 06:44:00,
2013-01-22 00:49:00,-7.8,-25.6,30.50,SW,225,5.0,9.0,40,0.00,,,0.00,meteohub,2013-01-22 06:49:00,
2013-01-22 00:54:00,-8.0,-25.8,30.50,North,0,4.0,12.0,40,0.00,,,0.00,meteohub,2013-01-22 06:54:00,
2013-01-22 00:59:00,-8.0,-25.8,30.50,SW,225,14.0,14.0,40,0.00,,,0.00,meteohub,2013-01-22 06:59:00,
2013-01-22 01:04:00,-8.1,-26.0,30.50,West,270,8.0,10.0,40,0.00,,,0.00,meteohub,2013-01-22 07:04:00,
2013-01-22 01:09:00,-8.1,-26.0,30.50,South,180,4.0,14.0,40,0.00,,,0.00,meteohub,2013-01-22 07:09:00,
2013-01-22 01:14:00,-8.3,-26.1,30.51,SW,225,7.0,14.0,40,0.00,,,0.00,meteohub,2013-01-22 07:14:00,
2013-01-22 01:19:00,-8.3,-26.1,30.51,SW,225,4.0,9.0,40,0.00,,,0.00,meteohub,2013-01-22 07:19:00,
2013-01-22 01:24:00,-8.3,-26.1,30.51,SW,225,9.0,9.0,40,0.00,,,0.00,meteohub,2013-01-22 07:24:00,
2013-01-22 01:29:00,-8.5,-26.9,30.51,South,180,6.0,9.0,39,0.00,,,0.00,meteohub,2013-01-22 07:29:00,
2013-01-22 01:34:00,-8.5,-26.9,30.51,West,270,4.0,9.0,39,0.00,,,0.00,meteohub,2013-01-22 07:34:00,
2013-01-22 01:39:00,-8.7,-27.0,30.52,West,270,8.0,9.0,39,0.00,,,0.00,meteohub,2013-01-22 07:39:00,
2013-01-22 01:44:00,-8.7,-27.0,30.52,South,180,6.0,8.0,39,0.00,,,0.00,meteohub,2013-01-22 07:44:00,
2013-01-22 01:50:00,-8.7,-27.0,30.51,South,180,6.0,8.0,39,0.00,,,0.00,meteohub,2013-01-22 07:50:00,
2013-01-22 01:55:00,-8.7,-27.0,30.52,South,180,7.0,8.0,39,0.00,,,0.00,meteohub,2013-01-22 07:55:00,
2013-01-22 02:00:00,-8.7,-27.0,30.52,South,180,4.0,8.0,39,0.00,,,0.00,meteohub,2013-01-22 08:00:00,
2013-01-22 02:05:00,-8.7,-27.0,30.52,South,180,4.0,8.0,39,0.00,,,0.00,meteohub,2013-01-22 08:05:00,
2013-01-22 02:10:00,-8.9,-27.2,30.53,SW,225,4.0,8.0,39,0.00,,,0.00,meteohub,2013-01-22 08:10:00,
2013-01-22 02:15:00,-8.9,-27.2,30.53,South,180,5.0,8.0,39,0.00,,,0.00,meteohub,2013-01-22 08:15:00,
2013-01-22 02:20:00,-8.9,-27.2,30.53,SW,225,5.0,6.0,39,0.00,,,0.00,meteohub,2013-01-22 08:20:00,
2013-01-22 02:25:00,-9.0,-27.2,30.53,West,270,5.0,7.0,39,0.00,,,0.00,meteohub,2013-01-22 08:25:00,
2013-01-22 02:30:00,-9.0,-27.2,30.53,SW,225,6.0,10.0,39,0.00,,,0.00,meteohub,2013-01-22 08:30:00,
2013-01-22 02:35:00,-9.0,-27.2,30.53,SW,225,4.0,10.0,39,0.00,,,0.00,meteohub,2013-01-22 08:35:00,
2013-01-22 02:40:00,-9.0,-27.2,30.53,SW,225,4.0,10.0,39,0.00,,,0.00,meteohub,2013-01-22 08:40:00,
2013-01-22 02:45:00,-9.2,-27.0,30.53,SW,225,7.0,9.0,40,0.00,,,0.00,meteohub,2013-01-22 08:45:00,
2013-01-22 02:50:00,-9.2,-27.0,30.53,South,180,6.0,9.0,40,0.00,,,0.00,meteohub,2013-01-22 08:50:00,
2013-01-22 02:55:00,-9.2,-27.0,30.53,South,180,5.0,9.0,40,0.00,,,0.00,meteohub,2013-01-22 08:55:00,
2013-01-22 03:00:00,-9.4,-27.2,30.53,SW,225,6.0,8.0,40,0.00,,,0.00,meteohub,2013-01-22 09:00:00,
2013-01-22 03:05:00,-9.4,-27.2,30.53,South,180,6.0,8.0,40,0.00,,,0.00,meteohub,2013-01-22 09:05:00,
2013-01-22 03:10:00,-9.4,-27.2,30.53,SW,225,5.0,8.0,40,0.00,,,0.00,meteohub,2013-01-22 09:10:00,
2013-01-22 03:15:00,-9.6,-26.9,30.53,South,180,5.0,8.0,41,0.00,,,0.00,meteohub,2013-01-22 09:15:00,
2013-01-22 03:20:00,-9.6,-26.9,30.53,South,180,4.0,8.0,41,0.00,,,0.00,meteohub,2013-01-22 09:20:00,
2013-01-22 03:26:00,-9.6,-26.9,30.53,South,180,4.0,8.0,41,0.00,,,0.00,meteohub,2013-01-22 09:26:00,
2013-01-22 03:31:00,-9.8,-27.0,30.53,South,180,4.0,7.0,41,0.00,,,0.00,meteohub,2013-01-22 09:31:00,
2013-01-22 03:36:00,-9.8,-27.0,30.53,SW,225,2.0,6.0,41,0.00,,,0.00,meteohub,2013-01-22 09:36:00,
2013-01-22 03:41:00,-9.9,-27.2,30.53,South,180,2.0,6.0,41,0.00,,,0.00,meteohub,2013-01-22 09:41:00,
2013-01-22 03:46:00,-9.9,-27.2,30.53,SW,225,7.0,7.0,41,0.00,,,0.00,meteohub,2013-01-22 09:46:00,
2013-01-22 03:51:00,-9.9,-27.6,30.53,SW,225,4.0,7.0,40,0.00,,,0.00,meteohub,2013-01-22 09:51:00,
2013-01-22 03:56:00,-9.9,-27.6,30.53,West,270,4.0,7.0,40,0.00,,,0.00,meteohub,2013-01-22 09:56:00,
2013-01-22 04:01:00,-10.1,-27.8,30.53,SE,135,2.0,7.0,40,0.00,,,0.00,meteohub,2013-01-22 10:01:00,
2013-01-22 04:06:00,-10.1,-27.8,30.53,SE,135,2.0,5.0,40,0.00,,,0.00,meteohub,2013-01-22 10:06:00,
2013-01-22 04:11:00,-10.1,-27.8,30.53,South,180,6.0,6.0,40,0.00,,,0.00,meteohub,2013-01-22 10:11:00,
2013-01-22 04:16:00,-10.1,-27.8,30.53,SW,225,4.0,6.0,40,0.00,,,0.00,meteohub,2013-01-22 10:16:00,
2013-01-22 04:21:00,-10.3,-27.9,30.53,West,270,5.0,6.0,40,0.00,,,0.00,meteohub,2013-01-22 10:21:00,
2013-01-22 04:26:00,-10.3,-27.9,30.53,SW,225,4.0,6.0,40,0.00,,,0.00,meteohub,2013-01-22 10:26:00,
2013-01-22 04:31:00,-10.3,-27.9,30.53,SW,225,4.0,7.0,40,0.00,,,0.00,meteohub,2013-01-22 10:31:00,
2013-01-22 04:36:00,-10.5,-28.1,30.53,SW,225,3.0,7.0,40,0.00,,,0.00,meteohub,2013-01-22 10:36:00,
2013-01-22 04:41:00,-10.5,-28.1,30.53,South,180,2.0,7.0,40,0.00,,,0.00,meteohub,2013-01-22 10:41:00,
2013-01-22 04:46:00,-10.5,-28.1,30.53,SW,225,3.0,5.0,40,0.00,,,0.00,meteohub,2013-01-22 10:46:00,
2013-01-22 04:51:00,-10.7,-28.3,30.53,SW,225,3.0,4.0,40,0.00,,,0.00,meteohub,2013-01-22 10:51:00,
2013-01-22 04:56:00,-10.7,-28.3,30.53,SW,225,4.0,4.0,40,0.00,,,0.00,meteohub,2013-01-22 10:56:00,
2013-01-22 05:01:00,-10.7,-28.3,30.53,West,270,3.0,5.0,40,0.00,,,0.00,meteohub,2013-01-22 11:01:00,
2013-01-22 05:06:00,-10.7,-28.3,30.54,South,180,2.0,5.0,40,0.00,,,0.00,meteohub,2013-01-22 11:06:00,
2013-01-22 05:12:00,-10.7,-28.3,30.54,SW,225,2.0,4.0,40,0.00,,,0.00,meteohub,2013-01-22 11:12:00,
2013-01-22 05:17:00,-10.8,-28.5,30.54,SW,225,4.0,4.0,40,0.00,,,0.00,meteohub,2013-01-22 11:17:00,
2013-01-22 05:22:00,-10.8,-27.9,30.53,South,180,3.0,4.0,41,0.00,,,0.00,meteohub,2013-01-22 11:22:00,
2013-01-22 05:27:00,-11.0,-28.1,30.53,South,180,3.0,4.0,41,0.00,,,0.00,meteohub,2013-01-22 11:27:00,
2013-01-22 05:32:00,-11.0,-28.1,30.53,SW,225,4.0,4.0,41,0.00,,,0.00,meteohub,2013-01-22 11:32:00,
2013-01-22 05:37:00,-11.0,-28.7,30.54,South,180,5.0,6.0,40,0.00,,,0.00,meteohub,2013-01-22 11:37:00,
2013-01-22 05:43:00,-11.2,-28.8,30.54,South,180,2.0,6.0,40,0.00,,,0.00,meteohub,2013-01-22 11:43:00,
2013-01-22 05:48:00,-11.2,-28.8,30.54,South,180,4.0,6.0,40,0.00,,,0.00,meteohub,2013-01-22 11:48:00,
2013-01-22 05:53:00,-11.2,-28.8,30.54,SW,225,3.0,5.0,40,0.00,,,0.00,meteohub,2013-01-22 11:53:00,
2013-01-22 05:58:00,-11.4,-28.5,30.54,SW,225,7.0,7.0,41,0.00,,,0.00,meteohub,2013-01-22 11:58:00,
2013-01-22 06:03:00,-11.4,-28.5,30.54,SW,225,5.0,8.0,41,0.00,,,0.00,meteohub,2013-01-22 12:03:00,
2013-01-22 06:08:00,-11.6,-28.7,30.53,South,180,5.0,8.0,41,0.00,,,0.00,meteohub,2013-01-22 12:08:00,
2013-01-22 06:14:00,-11.6,-28.7,30.54,West,270,4.0,8.0,41,0.00,,,0.00,meteohub,2013-01-22 12:14:00,
2013-01-22 06:19:00,-11.6,-28.7,30.54,SW,225,4.0,7.0,41,0.00,,,0.00,meteohub,2013-01-22 12:19:00,
2013-01-22 06:24:00,-11.7,-28.8,30.55,SW,225,3.0,7.0,41,0.00,,,0.00,meteohub,2013-01-22 12:24:00,
2013-01-22 06:29:00,-11.7,-28.8,30.55,SW,225,2.0,7.0,41,0.00,,,0.00,meteohub,2013-01-22 12:29:00,
2013-01-22 06:35:00,-11.7,-28.8,30.55,South,180,3.0,7.0,41,0.00,,,0.00,meteohub,2013-01-22 12:35:00,
2013-01-22 06:40:00,-11.9,-28.5,30.55,SW,225,4.0,7.0,42,0.00,,,0.00,meteohub,2013-01-22 12:40:00,
2013-01-22 06:45:00,-11.9,-28.5,30.55,SW,225,2.0,6.0,42,0.00,,,0.00,meteohub,2013-01-22 12:45:00,
2013-01-22 06:50:00,-11.9,-28.5,30.56,South,180,2.0,6.0,42,0.00,,,0.00,meteohub,2013-01-22 12:50:00,
2013-01-22 06:55:00,-12.1,-28.7,30.56,SW,225,4.0,5.0,42,0.00,,,0.00,meteohub,2013-01-22 12:55:00,
2013-01-22 07:00:00,-12.1,-28.7,30.56,South,180,2.0,5.0,42,0.00,,,0.00,meteohub,2013-01-22 13:00:00,
2013-01-22 07:06:00,-12.1,-28.7,30.55,South,180,2.0,5.0,42,0.00,,,0.00,meteohub,2013-01-22 13:06:00,
2013-01-22 07:11:00,-12.1,-28.7,30.56,West,270,2.0,5.0,42,0.00,,,0.00,meteohub,2013-01-22 13:11:00,
2013-01-22 07:16:00,-12.3,-28.8,30.55,SW,225,3.0,6.0,42,0.00,,,0.00,meteohub,2013-01-22 13:16:00,
2013-01-22 07:21:00,-12.3,-28.8,30.56,South,180,5.0,6.0,42,0.00,,,0.00,meteohub,2013-01-22 13:21:00,
2013-01-22 07:26:00,-12.5,-29.0,30.55,SW,225,6.0,6.0,42,0.00,,,0.00,meteohub,2013-01-22 13:26:00,
2013-01-22 07:31:00,-12.5,-29.0,30.55,SW,225,2.0,6.0,42,0.00,,,0.00,meteohub,2013-01-22 13:31:00,
2013-01-22 07:37:00,-12.5,-29.0,30.55,SW,225,3.0,6.0,42,0.00,,,0.00,meteohub,2013-01-22 13:37:00,
2013-01-22 07:42:00,-12.5,-29.0,30.55,SW,225,2.0,6.0,42,0.00,,,0.00,meteohub,2013-01-22 13:42:00,
2013-01-22 07:47:00,-12.5,-29.6,30.55,SW,225,2.0,4.0,41,0.00,,,0.00,meteohub,2013-01-22 13:47:00,
2013-01-22 07:53:00,-12.6,-29.7,30.55,SW,225,3.0,4.0,41,0.00,,,0.00,meteohub,2013-01-22 13:53:00,
2013-01-22 07:58:00,-12.5,-29.6,30.54,South,180,2.0,4.0,41,0.00,,,0.00,meteohub,2013-01-22 13:58:00,
2013-01-22 08:03:00,-12.1,-29.2,30.55,SW,225,3.0,4.0,41,0.00,,,0.00,meteohub,2013-01-22 14:03:00,
2013-01-22 08:08:00,-12.1,-29.2,30.54,SW,225,3.0,4.0,41,0.00,,,0.00,meteohub,2013-01-22 14:08:00,
2013-01-22 08:13:00,-11.7,-28.8,30.55,West,270,2.0,4.0,41,0.00,,,0.00,meteohub,2013-01-22 14:13:00,
2013-01-22 08:19:00,-11.4,-28.5,30.55,South,180,2.0,4.0,41,0.00,,,0.00,meteohub,2013-01-22 14:19:00,
2013-01-22 08:24:00,-11.2,-28.8,30.55,South,180,3.0,4.0,40,0.00,,,0.00,meteohub,2013-01-22 14:24:00,
2013-01-22 08:29:00,-11.2,-28.8,30.56,South,180,2.0,3.0,40,0.00,,,0.00,meteohub,2013-01-22 14:29:00,
2013-01-22 08:34:00,-11.0,-28.7,30.56,South,180,2.0,4.0,40,0.00,,,0.00,meteohub,2013-01-22 14:34:00,
2013-01-22 08:40:00,-10.7,-28.3,30.56,SW,225,2.0,4.0,40,0.00,,,0.00,meteohub,2013-01-22 14:40:00,
2013-01-22 08:45:00,-10.7,-28.8,30.56,South,180,3.0,4.0,39,0.00,,,0.00,meteohub,2013-01-22 14:45:00,
2013-01-22 08:50:00,-10.7,-28.8,30.56,SE,135,3.0,4.0,39,0.00,,,0.00,meteohub,2013-01-22 14:50:00,
2013-01-22 08:55:00,-10.3,-28.5,30.56,SW,225,2.0,4.0,39,0.00,,,0.00,meteohub,2013-01-22 14:55:00,
2013-01-22 09:00:00,-10.1,-28.3,30.56,South,180,2.0,4.0,39,0.00,,,0.00,meteohub,2013-01-22 15:00:00,
2013-01-22 09:05:00,-9.4,-28.1,30.57,South,180,2.0,4.0,38,0.00,,,0.00,meteohub,2013-01-22 15:05:00,
2013-01-22 09:10:00,-8.9,-27.6,30.57,South,180,1.0,4.0,38,0.00,,,0.00,meteohub,2013-01-22 15:10:00,
2013-01-22 09:15:00,-7.8,-26.7,30.57,SW,225,2.0,3.0,38,0.00,,,0.00,meteohub,2013-01-22 15:15:00,
2013-01-22 09:20:00,-8.0,-26.9,30.58,ESE,113,4.0,4.0,38,0.00,,,0.00,meteohub,2013-01-22 15:20:00,
2013-01-22 09:25:00,-8.1,-27.0,30.58,ESE,113,3.0,6.0,38,0.00,,,0.00,meteohub,2013-01-22 15:25:00,
2013-01-22 09:30:00,-8.1,-27.4,30.58,South,180,2.0,6.0,37,0.00,,,0.00,meteohub,2013-01-22 15:30:00,
2013-01-22 09:36:00,-8.1,-28.5,30.58,West,270,3.0,6.0,35,0.00,,,0.00,meteohub,2013-01-22 15:36:00,
2013-01-22 09:41:00,-8.1,-29.0,30.58,NE,45,3.0,5.0,34,0.00,,,0.00,meteohub,2013-01-22 15:41:00,
2013-01-22 09:46:00,-7.1,-25.4,30.57,South,180,3.0,5.0,39,0.00,,,0.00,meteohub,2013-01-22 15:46:00,
2013-01-22 09:51:00,-6.7,-25.2,30.57,South,180,4.0,5.0,39,0.00,,,0.00,meteohub,2013-01-22 15:51:00,
2013-01-22 09:56:00,-6.7,-25.6,30.57,South,180,2.0,4.0,38,0.00,,,0.00,meteohub,2013-01-22 15:56:00,
2013-01-22 10:01:00,-6.9,-26.3,30.57,SE,135,1.0,4.0,37,0.00,,,0.00,meteohub,2013-01-22 16:01:00,
2013-01-22 10:07:00,-6.3,-25.8,30.58,South,180,3.0,4.0,37,0.00,,,0.00,meteohub,2013-01-22 16:07:00,
2013-01-22 10:12:00,-6.5,-26.5,30.58,SE,135,2.0,4.0,36,0.00,,,0.00,meteohub,2013-01-22 16:12:00,
2013-01-22 10:17:00,-6.5,-27.0,30.58,South,180,4.0,4.0,35,0.00,,,0.00,meteohub,2013-01-22 16:17:00,
2013-01-22 10:23:00,-6.3,-26.9,30.58,SE,135,2.0,4.0,35,0.00,,,0.00,meteohub,2013-01-22 16:23:00,
2013-01-22 10:28:00,-6.0,-26.5,30.59,SW,225,1.0,5.0,35,0.00,,,0.00,meteohub,2013-01-22 16:28:00,
2013-01-22 10:33:00,-5.6,-26.7,30.58,South,180,1.0,5.0,34,0.00,,,0.00,meteohub,2013-01-22 16:33:00,
2013-01-22 10:39:00,-5.1,-26.3,30.58,SE,135,4.0,5.0,34,0.00,,,0.00,meteohub,2013-01-22 16:39:00,
2013-01-22 10:44:00,-5.4,-26.7,30.58,West,270,3.0,5.0,34,0.00,,,0.00,meteohub,2013-01-22 16:44:00,
2013-01-22 10:49:00,-5.1,-26.3,30.59,East,90,2.0,5.0,34,0.00,,,0.00,meteohub,2013-01-22 16:49:00,
2013-01-22 10:54:00,-4.7,-26.0,30.59,South,180,4.0,5.0,34,0.00,,,0.00,meteohub,2013-01-22 16:54:00,
2013-01-22 10:59:00,-4.7,-26.5,30.58,ESE,113,6.0,6.0,33,0.00,,,0.00,meteohub,2013-01-22 16:59:00,
2013-01-22 11:04:00,-5.1,-26.9,30.58,SW,225,3.0,5.0,33,0.00,,,0.00,meteohub,2013-01-22 17:04:00,
2013-01-22 11:09:00,-5.1,-26.9,30.58,SE,135,4.0,8.0,33,0.00,,,0.00,meteohub,2013-01-22 17:09:00,
2013-01-22 11:14:00,-4.7,-26.5,30.58,East,90,4.0,8.0,33,0.00,,,0.00,meteohub,2013-01-22 17:14:00,
2013-01-22 11:20:00,-4.2,-25.4,30.57,South,180,4.0,8.0,34,0.00,,,0.00,meteohub,2013-01-22 17:20:00,
2013-01-22 11:25:00,-4.0,-26.5,30.57,SSE,158,3.0,8.0,32,0.00,,,0.00,meteohub,2013-01-22 17:25:00,
2013-01-22 11:30:00,-3.6,-25.6,30.57,East,90,5.0,8.0,33,0.00,,,0.00,meteohub,2013-01-22 17:30:00,
2013-01-22 11:35:00,-3.3,-25.2,30.57,SE,135,3.0,5.0,33,0.00,,,0.00,meteohub,2013-01-22 17:35:00,
2013-01-22 11:40:00,-3.3,-25.2,30.57,SW,225,5.0,7.0,33,0.00,,,0.00,meteohub,2013-01-22 17:40:00,
2013-01-22 11:45:00,-3.1,-25.6,30.57,SSE,158,4.0,7.0,32,0.00,,,0.00,meteohub,2013-01-22 17:45:00,
2013-01-22 11:51:00,-3.1,-25.6,30.57,NE,45,6.0,7.0,32,0.00,,,0.00,meteohub,2013-01-22 17:51:00,
2013-01-22 11:56:00,-3.5,-26.0,30.56,SW,225,4.0,8.0,32,0.00,,,0.00,meteohub,2013-01-22 17:56:00,
2013-01-22 12:01:00,-3.5,-26.0,30.56,SE,135,4.0,8.0,32,0.00,,,0.00,meteohub,2013-01-22 18:01:00,
2013-01-22 12:07:00,-3.5,-26.0,30.56,SE,135,4.0,8.0,32,0.00,,,0.00,meteohub,2013-01-22 18:07:00,
2013-01-22 12:12:00,-2.9,-25.4,30.56,SE,135,8.0,8.0,32,0.00,,,0.00,meteohub,2013-01-22 18:12:00,
2013-01-22 12:17:00,-3.1,-26.1,30.56,NW,315,4.0,8.0,31,0.00,,,0.00,meteohub,2013-01-22 18:17:00,
2013-01-22 12:22:00,-2.6,-25.1,30.57,East,90,8.0,8.0,32,0.00,,,0.00,meteohub,2013-01-22 18:22:00,
2013-01-22 12:27:00,-2.4,-25.1,30.56,SE,135,7.0,10.0,32,0.00,,,0.00,meteohub,2013-01-22 18:27:00,
2013-01-22 12:32:00,-2.2,-25.4,30.56,South,180,4.0,10.0,31,0.00,,,0.00,meteohub,2013-01-22 18:32:00,
2013-01-22 12:37:00,-2.0,-25.2,30.56,SE,135,8.0,10.0,31,0.00,,,0.00,meteohub,2013-01-22 18:37:00,
2013-01-22 12:42:00,-2.0,-26.0,30.55,East,90,3.0,10.0,30,0.00,,,0.00,meteohub,2013-01-22 18:42:00,
2013-01-22 12:48:00,-1.8,-25.8,30.55,East,90,6.0,10.0,30,0.00,,,0.00,meteohub,2013-01-22 18:48:00,
2013-01-22 12:53:00,-1.8,-25.8,30.55,SE,135,4.0,10.0,30,0.00,,,0.00,meteohub,2013-01-22 18:53:00,
2013-01-22 12:58:00,-0.8,-24.2,30.55,East,90,4.0,8.0,31,0.00,,,0.00,meteohub,2013-01-22 18:58:00,
2013-01-22 13:03:00,-0.8,-24.2,30.54,SW,225,4.0,8.0,31,0.00,,,0.00,meteohub,2013-01-22 19:03:00,
2013-01-22 13:08:00,-0.9,-24.9,30.54,South,180,6.0,8.0,30,0.00,,,0.00,meteohub,2013-01-22 19:08:00,
2013-01-22 13:13:00,-1.1,-25.1,30.53,SE,135,4.0,8.0,30,0.00,,,0.00,meteohub,2013-01-22 19:13:00,
2013-01-22 13:18:00,-0.9,-24.9,30.54,SE,135,5.0,8.0,30,0.00,,,0.00,meteohub,2013-01-22 19:18:00,
2013-01-22 13:23:00,-1.1,-25.1,30.53,SE,135,4.0,9.0,30,0.00,,,0.00,meteohub,2013-01-22 19:23:00,
2013-01-22 13:28:00,-0.6,-24.0,30.53,ESE,113,4.0,9.0,31,0.00,,,0.00,meteohub,2013-01-22 19:28:00,
2013-01-22 13:34:00,-0.6,-24.0,30.53,East,90,4.0,9.0,31,0.00,,,0.00,meteohub,2013-01-22 19:34:00,
2013-01-22 13:39:00,-0.8,-24.2,30.54,SE,135,5.0,8.0,31,0.00,,,0.00,meteohub,2013-01-22 19:39:00,
2013-01-22 13:44:00,-0.4,-24.5,30.53,East,90,4.0,7.0,30,0.00,,,0.00,meteohub,2013-01-22 19:44:00,
2013-01-22 13:49:00,0.3,-23.8,30.53,SE,135,8.0,8.0,30,0.00,,,0.00,meteohub,2013-01-22 19:49:00,
2013-01-22 13:54:00,-0.2,-24.3,30.52,East,90,4.0,8.0,30,0.00,,,0.00,meteohub,2013-01-22 19:54:00,
2013-01-22 13:59:00,-0.4,-24.5,30.53,SE,135,9.0,9.0,30,0.00,,,0.00,meteohub,2013-01-22 19:59:00,
2013-01-22 14:04:00,-0.4,-24.5,30.53,SE,135,9.0,9.0,30,0.00,,,0.00,meteohub,2013-01-22 20:04:00,
2013-01-22 14:09:00,-0.8,-24.2,30.53,South,180,4.0,9.0,31,0.00,,,0.00,meteohub,2013-01-22 20:09:00,
2013-01-22 14:15:00,-0.6,-24.0,30.54,West,270,4.0,9.0,31,0.00,,,0.00,meteohub,2013-01-22 20:15:00,
2013-01-22 14:20:00,-0.4,-24.5,30.53,South,180,4.0,9.0,30,0.00,,,0.00,meteohub,2013-01-22 20:20:00,
2013-01-22 14:25:00,-0.2,-23.6,30.53,South,180,9.0,9.0,31,0.00,,,0.00,meteohub,2013-01-22 20:25:00,
2013-01-22 14:30:00,-0.6,-24.0,30.53,South,180,4.0,8.0,31,0.00,,,0.00,meteohub,2013-01-22 20:30:00,
2013-01-22 14:35:00,-0.4,-23.8,30.53,SW,225,3.0,10.0,31,0.00,,,0.00,meteohub,2013-01-22 20:35:00,
2013-01-22 14:40:00,-0.2,-23.6,30.53,SE,135,8.0,10.0,31,0.00,,,0.00,meteohub,2013-01-22 20:40:00,
2013-01-22 14:45:00,-0.2,-23.6,30.53,South,180,3.0,8.0,31,0.00,,,0.00,meteohub,2013-01-22 20:45:00,
2013-01-22 14:51:00,0.3,-23.3,30.53,SE,135,5.0,8.0,31,0.00,,,0.00,meteohub,2013-01-22 20:51:00,
2013-01-22 14:56:00,0.3,-23.3,30.52,East,90,4.0,8.0,31,0.00,,,0.00,meteohub,2013-01-22 20:56:00,
2013-01-22 15:01:00,1.2,-21.8,30.52,East,90,6.0,9.0,32,0.00,,,0.00,meteohub,2013-01-22 21:01:00,
2013-01-22 15:06:00,1.0,-22.5,30.52,SE,135,7.0,9.0,31,0.00,,,0.00,meteohub,2013-01-22 21:06:00,
2013-01-22 15:11:00,0.3,-23.3,30.52,ESE,113,9.0,9.0,31,0.00,,,0.00,meteohub,2013-01-22 21:11:00,
2013-01-22 15:16:00,0.3,-23.3,30.52,SE,135,4.0,11.0,31,0.00,,,0.00,meteohub,2013-01-22 21:16:00,
2013-01-22 15:22:00,0.5,-23.1,30.52,SE,135,4.0,11.0,31,0.00,,,0.00,meteohub,2013-01-22 21:22:00,
2013-01-22 15:27:00,0.7,-22.9,30.53,SE,135,8.0,9.0,31,0.00,,,0.00,meteohub,2013-01-22 21:27:00,
2013-01-22 15:32:00,0.9,-22.7,30.53,South,180,4.0,8.0,31,0.00,,,0.00,meteohub,2013-01-22 21:32:00,
2013-01-22 15:37:00,1.0,-22.5,30.52,SE,135,6.0,8.0,31,0.00,,,0.00,meteohub,2013-01-22 21:37:00,
2013-01-22 15:41:00,1.2,-22.4,30.52,SE,135,8.0,8.0,31,0.00,,,0.00,meteohub,2013-01-22 21:41:00,
2013-01-22 15:46:00,1.0,-22.5,30.52,SE,135,9.0,10.0,31,0.00,,,0.00,meteohub,2013-01-22 21:46:00,
2013-01-22 15:52:00,0.9,-22.7,30.52,SE,135,7.0,11.0,31,0.00,,,0.00,meteohub,2013-01-22 21:52:00,
2013-01-22 15:57:00,0.7,-22.9,30.52,SE,135,8.0,11.0,31,0.00,,,0.00,meteohub,2013-01-22 21:57:00,
2013-01-22 16:02:00,0.5,-23.1,30.51,NW,315,4.0,11.0,31,0.00,,,0.00,meteohub,2013-01-22 22:02:00,
2013-01-22 16:07:00,0.5,-23.1,30.51,NW,315,4.0,10.0,31,0.00,,,0.00,meteohub,2013-01-22 22:07:00,
2013-01-22 16:12:00,0.5,-22.4,30.51,SE,135,8.0,8.0,32,0.00,,,0.00,meteohub,2013-01-22 22:12:00,
2013-01-22 16:18:00,0.5,-22.4,30.51,South,180,6.0,8.0,32,0.00,,,0.00,meteohub,2013-01-22 22:18:00,
2013-01-22 16:23:00,0.1,-22.7,30.51,East,90,6.0,8.0,32,0.00,,,0.00,meteohub,2013-01-22 22:23:00,
2013-01-22 16:28:00,0.1,-22.2,30.51,SE,135,6.0,8.0,33,0.00,,,0.00,meteohub,2013-01-22 22:28:00,
2013-01-22 16:33:00,0.1,-22.2,30.51,SE,135,6.0,8.0,33,0.00,,,0.00,meteohub,2013-01-22 22:33:00,
2013-01-22 16:38:00,0.0,-22.4,30.51,SE,135,6.0,8.0,33,0.00,,,0.00,meteohub,2013-01-22 22:38:00,
2013-01-22 16:43:00,0.0,-21.8,30.51,East,90,4.0,8.0,34,0.00,,,0.00,meteohub,2013-01-22 22:43:00,
2013-01-22 16:48:00,0.0,-21.8,30.51,East,90,2.0,8.0,34,0.00,,,0.00,meteohub,2013-01-22 22:48:00,
2013-01-22 16:53:00,0.0,-21.3,30.51,East,90,4.0,8.0,35,0.00,,,0.00,meteohub,2013-01-22 22:53:00,
2013-01-22 16:59:00,0.0,-21.3,30.51,SE,135,4.0,8.0,35,0.00,,,0.00,meteohub,2013-01-22 22:59:00,
2013-01-22 17:04:00,0.0,-21.3,30.51,SE,135,4.0,6.0,35,0.00,,,0.00,meteohub,2013-01-22 23:04:00,
2013-01-22 17:09:00,0.0,-20.7,30.51,SE,135,4.0,6.0,36,0.00,,,0.00,meteohub,2013-01-22 23:09:00,
2013-01-22 17:14:00,-0.2,-20.7,30.51,SE,135,4.0,6.0,36,0.00,,,0.00,meteohub,2013-01-22 23:14:00,
2013-01-22 17:19:00,-0.2,-20.7,30.51,ESE,113,2.0,5.0,36,0.00,,,0.00,meteohub,2013-01-22 23:19:00,
2013-01-22 17:24:00,-0.2,-20.7,30.51,ESE,113,3.0,4.0,36,0.00,,,0.00,meteohub,2013-01-22 23:24:00,
2013-01-22 17:29:00,-0.2,-20.4,30.51,SE,135,2.0,4.0,37,0.00,,,0.00,meteohub,2013-01-22 23:29:00,
2013-01-22 17:34:00,-0.4,-20.4,30.51,South,180,4.0,4.0,37,0.00,,,0.00,meteohub,2013-01-22 23:34:00,
2013-01-22 17:40:00,-0.4,-20.4,30.51,East,90,4.0,5.0,37,0.00,,,0.00,meteohub,2013-01-22 23:40:00,
2013-01-22 17:45:00,-0.4,-20.0,30.51,South,180,4.0,6.0,38,0.00,,,0.00,meteohub,2013-01-22 23:45:00,
2013-01-22 17:50:00,-0.4,-20.0,30.51,SE,135,5.0,7.0,38,0.00,,,0.00,meteohub,2013-01-22 23:50:00,
2013-01-22 17:55:00,-0.4,-20.0,30.51,SE,135,4.0,7.0,38,0.00,,,0.00,meteohub,2013-01-22 23:55:00,
2013-01-22 18:01:00,-0.4,-20.0,30.50,East,90,6.0,7.0,38,0.00,,,0.00,meteohub,2013-01-23 00:01:00,
2013-01-22 18:06:00,-0.4,-20.0,30.50,East,90,6.0,7.0,38,0.00,,,0.00,meteohub,2013-01-23 00:06:00,
2013-01-22 18:11:00,-0.2,-19.8,30.50,East,90,5.0,6.0,38,0.00,,,0.00,meteohub,2013-01-23 00:11:00,
2013-01-22 18:16:00,-0.2,-19.8,30.49,SE,135,4.0,7.0,38,0.00,,,0.00,meteohub,2013-01-23 00:16:00,
2013-01-22 18:21:00,-0.2,-19.8,30.49,SE,135,3.0,7.0,38,0.00,,,0.00,meteohub,2013-01-23 00:21:00,
2013-01-22 18:27:00,-0.2,-19.8,30.49,SE,135,4.0,7.0,38,0.00,,,0.00,meteohub,2013-01-23 00:27:00,
2013-01-22 18:32:00,-0.2,-19.8,30.49,SE,135,5.0,6.0,38,0.00,,,0.00,meteohub,2013-01-23 00:32:00,
2013-01-22 18:37:00,-0.2,-19.8,30.49,SE,135,4.0,7.0,38,0.00,,,0.00,meteohub,2013-01-23 00:37:00,
2013-01-22 18:42:00,0.0,-19.7,30.49,SE,135,4.0,7.0,38,0.00,,,0.00,meteohub,2013-01-23 00:42:00,
2013-01-22 18:47:00,0.0,-19.7,30.49,SE,135,4.0,7.0,38,0.00,,,0.00,meteohub,2013-01-23 00:47:00,
2013-01-22 18:52:00,0.0,-19.7,30.48,SE,135,4.0,7.0,38,0.00,,,0.00,meteohub,2013-01-23 00:52:00,
2013-01-22 18:57:00,0.0,-19.7,30.48,East,90,7.0,7.0,38,0.00,,,0.00,meteohub,2013-01-23 00:57:00,
2013-01-22 19:03:00,0.1,-19.5,30.48,East,90,4.0,7.0,38,0.00,,,0.00,meteohub,2013-01-23 01:03:00,
2013-01-22 19:08:00,0.3,-19.3,30.48,SSE,158,3.0,7.0,38,0.00,,,0.00,meteohub,2013-01-23 01:08:00,
2013-01-22 19:13:00,0.3,-18.8,30.48,ENE,68,5.0,7.0,39,0.00,,,0.00,meteohub,2013-01-23 01:13:00,
2013-01-22 19:18:00,0.3,-18.8,30.48,SE,135,4.0,7.0,39,0.00,,,0.00,meteohub,2013-01-23 01:18:00,
2013-01-22 19:23:00,0.3,-18.8,30.48,SE,135,4.0,7.0,39,0.00,,,0.00,meteohub,2013-01-23 01:23:00,
2013-01-22 19:28:00,0.5,-18.6,30.48,SE,135,3.0,7.0,39,0.00,,,0.00,meteohub,2013-01-23 01:28:00,
2013-01-22 19:34:00,0.5,-18.6,30.48,East,90,4.0,7.0,39,0.00,,,0.00,meteohub,2013-01-23 01:34:00,
2013-01-22 19:39:00,0.7,-18.4,30.48,East,90,3.0,6.0,39,0.00,,,0.00,meteohub,2013-01-23 01:39:00,
2013-01-22 19:44:00,0.7,-18.4,30.48,East,90,2.0,6.0,39,0.00,,,0.00,meteohub,2013-01-23 01:44:00,
2013-01-22 19:50:00,0.9,-18.2,30.48,SE,135,5.0,8.0,39,0.00,,,0.00,meteohub,2013-01-23 01:50:00,
2013-01-22 19:55:00,0.9,-18.2,30.48,SE,135,4.0,8.0,39,0.00,,,0.00,meteohub,2013-01-23 01:55:00,
2013-01-22 20:00:00,0.9,-18.2,30.47,East,90,6.0,6.0,39,0.00,,,0.00,meteohub,2013-01-23 02:00:00,
2013-01-22 20:05:00,0.9,-18.2,30.47,East,90,6.0,6.0,39,0.00,,,0.00,meteohub,2013-01-23 02:05:00,
2013-01-22 20:10:00,1.2,-17.5,30.47,East,90,7.0,7.0,40,0.00,,,0.00,meteohub,2013-01-23 02:10:00,
2013-01-22 20:15:00,1.2,-17.5,30.46,South,180,3.0,7.0,40,0.00,,,0.00,meteohub,2013-01-23 02:15:00,
2013-01-22 20:20:00,1.4,-15.5,30.46,SE,135,6.0,7.0,44,0.00,,,0.00,meteohub,2013-01-23 02:20:00,
2013-01-22 20:25:00,1.4,-15.5,30.46,East,90,4.0,7.0,44,0.00,,,0.00,meteohub,2013-01-23 02:25:00,
2013-01-22 20:31:00,1.4,-15.5,30.46,SE,135,3.0,9.0,44,0.00,,,0.00,meteohub,2013-01-23 02:31:00,
2013-01-22 20:36:00,1.6,-15.3,30.46,East,90,4.0,9.0,44,0.00,,,0.00,meteohub,2013-01-23 02:36:00,
2013-01-22 20:41:00,1.6,-14.8,30.47,NW,315,4.0,10.0,45,0.00,,,0.00,meteohub,2013-01-23 02:41:00,
2013-01-22 20:46:00,1.8,-14.6,30.46,SE,135,3.0,10.0,45,0.00,,,0.00,meteohub,2013-01-23 02:46:00,
2013-01-22 20:52:00,1.8,-14.6,30.46,East,90,4.0,5.0,45,0.00,,,0.00,meteohub,2013-01-23 02:52:00,
2013-01-22 20:57:00,1.8,-14.6,30.46,SE,135,4.0,6.0,45,0.00,,,0.00,meteohub,2013-01-23 02:57:00,
2013-01-22 21:02:00,1.9,-14.4,30.46,East,90,3.0,6.0,45,0.00,,,0.00,meteohub,2013-01-23 03:02:00,
2013-01-22 21:07:00,1.9,-14.4,30.46,East,90,5.0,6.0,45,0.00,,,0.00,meteohub,2013-01-23 03:07:00,
2013-01-22 21:12:00,1.9,-14.4,30.46,SE,135,2.0,6.0,45,0.00,,,0.00,meteohub,2013-01-23 03:12:00,
2013-01-22 21:17:00,2.1,-14.4,30.46,South,180,4.0,6.0,45,0.00,,,0.00,meteohub,2013-01-23 03:17:00,
2013-01-22 21:23:00,2.1,-14.4,30.46,East,90,4.0,6.0,45,0.00,,,0.00,meteohub,2013-01-23 03:23:00,
2013-01-22 21:28:00,2.3,-14.3,30.46,SE,135,4.0,6.0,45,0.00,,,0.00,meteohub,2013-01-23 03:28:00,
2013-01-22 21:33:00,2.3,-13.7,30.46,South,180,4.0,5.0,46,0.00,,,0.00,meteohub,2013-01-23 03:33:00,
2013-01-22 21:38:00,2.3,-13.7,30.46,SE,135,4.0,6.0,46,0.00,,,0.00,meteohub,2013-01-23 03:38:00,
2013-01-22 21:43:00,2.5,-13.5,30.46,SE,135,4.0,6.0,46,0.00,,,0.00,meteohub,2013-01-23 03:43:00,
2013-01-22 21:48:00,2.5,-13.5,30.45,SE,135,4.0,7.0,46,0.00,,,0.00,meteohub,2013-01-23 03:48:00,
2013-01-22 21:53:00,2.7,-13.4,30.45,East,90,3.0,7.0,46,0.00,,,0.00,meteohub,2013-01-23 03:53:00,
2013-01-22 21:59:00,2.7,-13.4,30.45,SE,135,3.0,7.0,46,0.00,,,0.00,meteohub,2013-01-23 03:59:00,
2013-01-22 22:04:00,2.7,-13.4,30.45,East,90,4.0,7.0,46,0.00,,,0.00,meteohub,2013-01-23 04:04:00,
2013-01-22 22:09:00,2.8,-13.2,30.45,East,90,3.0,7.0,46,0.00,,,0.00,meteohub,2013-01-23 04:09:00,
2013-01-22 22:14:00,2.8,-13.2,30.45,East,90,5.0,5.0,46,0.00,,,0.00,meteohub,2013-01-23 04:14:00,
2013-01-22 22:20:00,2.8,-13.2,30.45,NE,45,2.0,4.0,46,0.00,,,0.00,meteohub,2013-01-23 04:20:00,
2013-01-22 22:25:00,2.8,-13.2,30.44,SE,135,2.0,5.0,46,0.00,,,0.00,meteohub,2013-01-23 04:25:00,
2013-01-22 22:30:00,2.8,-13.2,30.44,NE,45,2.0,5.0,46,0.00,,,0.00,meteohub,2013-01-23 04:30:00,
2013-01-22 22:35:00,2.8,-13.2,30.44,NE,45,3.0,5.0,46,0.00,,,0.00,meteohub,2013-01-23 04:35:00,
2013-01-22 22:40:00,3.0,-12.6,30.44,SE,135,2.0,5.0,47,0.00,,,0.00,meteohub,2013-01-23 04:40:00,
2013-01-22 22:45:00,3.0,-12.6,30.44,NE,45,4.0,4.0,47,0.00,,,0.00,meteohub,2013-01-23 04:45:00,
2013-01-22 22:50:00,3.0,-12.6,30.43,North,0,1.0,4.0,47,0.00,,,0.00,meteohub,2013-01-23 04:50:00,
2013-01-22 22:55:00,3.0,-12.6,30.44,East,90,3.0,4.0,47,0.00,,,0.00,meteohub,2013-01-23 04:55:00,
2013-01-22 23:01:00,3.2,-13.0,30.44,East,90,2.0,4.0,46,0.00,,,0.00,meteohub,2013-01-23 05:01:00,
2013-01-22 23:03:00,3.2,-13.0,30.44,East,90,4.0,4.0,46,0.00,,,0.00,meteohub,2013-01-23 05:03:00,
2013-01-22 23:05:00,3.2,-13.0,30.44,SE,135,4.0,5.0,46,0.00,,,0.00,meteohub,2013-01-23 05:05:00,
2013-01-22 23:11:00,3.2,-13.0,30.44,East,90,7.0,7.0,46,0.00,,,0.00,meteohub,2013-01-23 05:11:00,
2013-01-22 23:16:00,3.2,-13.0,30.44,SE,135,4.0,7.0,46,0.00,,,0.00,meteohub,2013-01-23 05:16:00,
2013-01-22 23:21:00,3.4,-12.8,30.44,SE,135,2.0,7.0,46,0.00,,,0.00,meteohub,2013-01-23 05:21:00,
2013-01-22 23:26:00,3.4,-12.8,30.44,SE,135,5.0,7.0,46,0.00,,,0.00,meteohub,2013-01-23 05:26:00,
2013-01-22 23:31:00,3.6,-12.6,30.44,SE,135,5.0,6.0,46,0.00,,,0.00,meteohub,2013-01-23 05:31:00,
2013-01-22 23:36:00,3.6,-12.6,30.44,SE,135,2.0,6.0,46,0.00,,,0.00,meteohub,2013-01-23 05:36:00,
2013-01-22 23:42:00,3.7,-12.5,30.43,East,90,5.0,6.0,46,0.00,,,0.00,meteohub,2013-01-23 05:42:00,
2013-01-22 23:47:00,3.7,-12.5,30.43,SE,135,4.0,6.0,46,0.00,,,0.00,meteohub,2013-01-23 05:47:00,
2013-01-22 23:52:00,3.7,-11.9,30.43,SE,135,2.0,6.0,47,0.00,,,0.00,meteohub,2013-01-23 05:52:00,
2013-01-22 23:57:00,3.9,-11.7,30.43,East,90,2.0,6.0,47,0.00,,,0.00,meteohub,2013-01-23 05:57:00,